• MPC Preparation (Info)

  • MPEC 2020-P37 : 2020 PO

    The following Minor Planet Electronic Circular may be linked-to from your own Web pages, but must not otherwise be redistributed electronically.

    A form allowing access to any MPEC is at the bottom of this page.


    Read MPEC 2020-P36 Read MPEC 2020-P38


    M.P.E.C. 2020-P37                               Issued 2020 August 10, 07:43 UT
    
         The Minor Planet Electronic Circulars contain information on unusual
             minor planets and routine data on comets.  They are published
        on behalf of Division F of the International Astronomical Union by the
              Minor Planet Center, Smithsonian Astrophysical Observatory,
                              Cambridge, MA 02138, U.S.A.
    
                 Prepared using the Tamkin Foundation Computer Network
    
                                  MPC@CFA.HARVARD.EDU
                URL https://www.minorplanetcenter.net/    ISSN 1523-6714
    
                                     2020 PO                                 
    
    
    Observations:
         K20P00O* C2020 08 09.32155 22 27 05.70 +32 31 49.4          20.2 GVEP037G96
         K20P00O  C2020 08 09.33400 22 27 11.80 +32 27 33.9          19.8 GVEP037G96
         K20P00O  C2020 08 09.34023 22 27 14.88 +32 25 23.4          19.9 GVEP037G96
         K20P00O  C2020 08 09.36212 22 27 25.65 +32 17 43.6          19.6 GVEP037I52
         K20P00O  C2020 08 09.36303 22 27 26.11 +32 17 23.8          20.2 GVEP037I52
         K20P00O  C2020 08 09.36394 22 27 26.53 +32 17 04.3                VEP037I52
         K20P00O  C2020 08 09.36486 22 27 27.02 +32 16 45.3                VEP037I52
         K20P00O  C2020 08 09.40977 22 27 49.59 +32 00 33.7          19.7 GVEP037I52
         K20P00O  C2020 08 09.41069 22 27 50.06 +32 00 13.1          19.8 GVEP037I52
         K20P00O  C2020 08 09.41160 22 27 50.53 +31 59 53.1          20.1 GVEP037I52
         K20P00O  C2020 08 09.41252 22 27 51.01 +31 59 33.1          19.9 GVEP037I52
         K20P00O KC2020 08 09.83402 22 33 10.32 +29 03 35.1                VEP037104
         K20P00O KC2020 08 09.84685 22 33 19.56 +28 57 43.9          19.8 GVEP037104
         K20P00O KC2020 08 09.85213 22 33 23.37 +28 55 18.5          19.6 GVEP037104
         K20P00O KC2020 08 09.87065422 33 35.68 +28 46 42.0          19.9 GVEP037L01
         K20P00O KC2020 08 09.87276122 33 37.18 +28 45 42.7          19.8 GVEP037L01
         K20P00O KC2020 08 09.87425422 33 38.23 +28 45 00.7          19.8 GVEP037L01
         K20P00O KC2020 08 09.88082822 33 42.86 +28 41 55.7          19.9 GVEP037L01
         K20P00O KC2020 08 09.88158022 33 43.38 +28 41 34.5          19.8 GVEP037L01
         K20P00O KC2020 08 09.90114822 33 58.31 +28 32 08.7          19.5 GVEP037203
         K20P00O KC2020 08 09.94777622 34 31.18 +28 09 27.9          19.6 GVEP037203
         K20P00O KC2020 08 10.03661622 35 34.05 +27 23 52.4                VEP037204
         K20P00O KC2020 08 10.04532722 35 40.27 +27 19 13.6          19.6 GVEP037204
         K20P00O HC2020 08 10.05411022 35 46.65 +27 14 30.3                VEP037204
         K20P00O KC2020 08 10.12663 22 37 11.87 +26 34 44.6          19.6 GVEP037W34
         K20P00O KC2020 08 10.13894 22 37 21.64 +26 27 55.7          19.3 GVEP037W34
         K20P00O KC2020 08 10.15273 22 37 32.57 +26 20 13.2          19.4 GVEP037W34
         K20P00O KC2020 08 10.21347 22 38 24.44 +25 44 33.4          19.5 GVEP037H36
         K20P00O KC2020 08 10.21741 22 38 27.70 +25 42 14.7          19.0 GVEP037H36
         K20P00O KC2020 08 10.22135 22 38 30.74 +25 39 54.7          19.7 GVEP037H36
         K20P00O KC2020 08 10.23403 22 38 41.04 +25 32 22.5          19.3 GVEP037H36
         K20P00O  C2020 08 10.27971 22 39 24.47 +25 05 03.0                VEP037I52
         K20P00O  C2020 08 10.28002 22 39 24.70 +25 04 52.1          19.1 GVEP037I52
         K20P00O  C2020 08 10.28033 22 39 24.96 +25 04 40.6          18.8 GVEP037I52
         K20P00O  C2020 08 10.28064 22 39 25.22 +25 04 29.1          19.1 GVEP037I52
    
    Observer details:
    104 San Marcello Pistoiese.  Observers P. Bacci, M. Maestripieri.  Measurers
        P. Bacci, L. Tesi, G. Fagioli.  0.60-m reflector + CCD.
    203 GiaGa Observatory.  Observers S. Foglia, G. Galli.  Measurer G. Galli.
        0.36-m f/5.76 Schmidt-Cassegrain + CCD.
    204 Schiaparelli Observatory.  Observer L. Buzzi.  0.84-m f/3.5 reflector +
        CCD.
    G96 Mt. Lemmon Survey.  Observer T. A. Pruyne.  Measurers E. J. Christensen,
        G. A. Farneth, D. C. Fuls, A. R. Gibbs, A. D. Grauer, H. Groeller, R. A.
        Kowalski, S. M. Larson, G. J. Leonard, T. A. Pruyne, D. Rankin, R. L.
        Seaman, F. C. Shelly, K. W. Wierzchos.  1.5-m reflector + 10K CCD.
    H36 Sandlot Observatory, Scranton.  Observer G. Hug.  0.56-m reflector + CCD.
    I52 Steward Observatory, Mt. Lemmon Station.  Observer H. Groeller.  Measurers
        E. J. Christensen, G. A. Farneth, D. C. Fuls, A. R. Gibbs, A. D. Grauer,
        H. Groeller, R. A. Kowalski, S. M. Larson, G. J. Leonard, T. A. Pruyne, D.
        Rankin, R. L. Seaman, F. C. Shelly, K. W. Wierzchos.  1.0-m reflector +
        CCD.
    L01 Visnjan Observatory, Tican.  Observers K. Korlevic, F. Hrzenjak, E.
        Pettarin, F. Matkovic.  Measurer K. Korlevic.  1.0-m f/2.9 reflector +
        CCD.
    W34 Squirrel Valley Observatory, Columbus.  Observer R. L. Flynn.  0.35-m
        Schmidt-Cassegrain + CCD.
    
    Orbital elements:
    2020 PO                                                  Earth MOID = 0.0103 AU
    Epoch 2020 May 31.0 TT = JDT 2459000.5                  Bell
    M 185.49804              (2000.0)            P               Q
    n   1.05222538     Peri.  300.39518     +0.11328060     -0.94970072
    a   0.9573341      Node   139.62798     +0.99353827     +0.10620215
    e   0.2108938      Incl.   26.78981     +0.00701548     +0.29460082
    P   0.94           H   26.1           G   0.15           U   7
    Residuals in seconds of arc
    200809 G96  0.2+  0.2-    200809 104  0.1+  0.3+    200810 W34  1.0+  0.5+
    200809 G96  0.0   1.0+    200809 104  0.2+  0.5+    200810 W34  0.0   0.0
    200809 G96  0.2+  0.1-    200809 L01  0.1-  0.4+    200810 W34  0.4-  0.2-
    200809 I52  0.2-  0.0     200809 L01  0.0   0.2+    200810 H36  0.2-  0.8-
    200809 I52  0.0   0.5-    200809 L01  0.1-  0.2+    200810 H36  0.9+  0.4-
    200809 I52  0.4-  0.7-    200809 L01  0.3-  0.5+    200810 H36  1.0-  0.8-
    200809 I52  0.0   0.1-    200809 L01  0.5-  0.5+    200810 H36  0.1+  0.7-
    200809 I52  0.1-  0.1+    200809 203  0.4+  0.4+    200810 I52  0.1-  0.1+
    200809 I52  0.2-  0.2-    200809 203  0.1+  0.3-    200810 I52  0.4-  0.7+
    200809 I52  0.1-  0.1-    200810 204  0.5+  0.2-    200810 I52  0.3-  0.6+
    200809 I52  0.0   0.2+    200810 204  0.0   0.4-    200810 I52  0.2-  0.6+
    200809 104  0.5+  0.1-    200810 204  0.5+  0.8-
    
    Ephemeris:
    2020 PO                  a,e,i = 0.96, 0.21, 27                  q = 0.7554
    Date    TT    R. A. (2000) Decl.     Delta      r    Elong.  Phase     V
    2020 07 11    21 38 45.8 +47 36 34   0.2655  1.1103   103.8    62.8    25.7
    ...
    2020 07 26    21 48 39.2 +47 47 51   0.1459  1.0744   110.0    62.7    24.3
    ...
    2020 08 03    21 58 35.3 +45 17 33   0.08012 1.0516   115.5    60.6    22.9
    ...
    2020 08 09    22 23 55.0 +34 13 53   0.03127 1.0331   127.4    51.2    20.5
    2020 08 10    22 35 03.5 +27 45 24   0.02359 1.0299   133.0    46.0    19.8
    2020 08 11    22 53 00.9 +15 18 30   0.01657 1.0267   142.3    37.1    18.8
    ...
    2020 08 17    08 26 11.9 -65 18 57   0.03881 1.0066    80.2    97.6    22.6
    ...
    2020 08 25    09 19 05.7 -57 10 00   0.1040  0.9783    68.9   105.4    25.0
    ...
    2020 09 09    09 34 01.8 -52 48 38   0.2235  0.9221    61.6   106.1    26.6
    
    M. P. C. Staff               (C) Copyright 2020 MPC           M.P.E.C. 2020-P37
    


    Read MPEC 2020-P36 Read MPEC 2020-P38


    MPEC number:

    Enter an MPEC number in one of the following forms:

    • 1997-B01 (the full form)
    • J97B01 (the packed version of the full form)
    • B01 (the abbreviated form)